Probability
0 0 0 0 0 0 0 0 0 0 0 0 0 0 0 0 0 0 0 1 3 5 6 6 4 3 3 3 3 3 3 3 3 2 1 1 0 0 0 0 0 0 0
0 0 0 0 0 0 0 0 0 0 0 0 0 0 0 0 0 0 0 1 3 4 5 6 4 2 2 3 3 3 2 2 2 2 2 1 0 0 0 0 0 0 0
0 1 1 1 0 0 0 0 0 0 0 0 0 0 0 0 0 0 0 1 2 3 5 7 7 4 3 4 3 2 1 2 1 1 1 1 0 0 0 0 0 0 0
2 2 2 1 0 0 0 0 0 0 0 0 0 0 0 0 0 0 0 0 1 1 4 9 11 9 7 7 6 4 3 4 3 1 1 1 0 0 0 0 0 0 0
4 3 1 0 0 0 0 0 0 0 0 0 0 0 0 0 0 1 0 0 0 0 2 7 11 12 12 11 10 8 7 7 6 4 3 2 1 0 0 0 0 0 0
4 2 0 0 0 0 0 0 0 0 0 0 0 0 0 0 0 0 0 0 0 0 1 3 7 10 11 12 12 11 10 9 9 8 6 4 3 2 1 1 1 0 0
3 1 0 0 0 0 0 0 0 0 0 0 0 0 0 0 0 0 0 0 0 0 0 1 2 4 6 9 10 10 10 10 11 10 9 7 6 5 4 3 3 1 1
2 1 0 0 0 0 0 0 0 0 0 0 0 0 0 0 0 0 0 0 0 0 0 0 0 0 2 4 6 8 10 12 13 13 11 9 8 7 6 6 5 4 3
1 0 0 0 0 0 0 0 0 0 0 0 0 0 0 0 0 0 0 0 0 0 0 0 0 0 1 2 3 5 9 13 15 14 13 12 10 9 9 8 7 6 5
1 1 1 0 0 0 0 0 0 0 0 0 0 0 0 0 0 0 0 0 0 0 0 0 0 0 0 0 1 3 6 10 12 13 14 14 13 12 11 10 9 8 7
2 2 2 1 1 1 2 1 0 0 0 0 0 0 0 0 0 0 0 0 0 0 0 0 0 0 0 0 0 2 5 7 8 9 11 13 13 13 13 12 12 11 10
3 3 3 3 3 4 5 4 2 0 0 0 1 2 1 0 0 0 0 0 0 0 0 0 0 0 0 0 1 3 5 6 6 5 6 8 9 10 11 11 11 12 12
4 4 5 4 5 6 6 5 3 2 0 0 1 3 2 0 0 0 0 0 0 0 0 0 0 0 0 1 2 3 4 4 4 3 3 3 4 6 7 7 7 8 9
4 5 6 6 5 6 5 4 4 4 2 1 1 3 2 1 1 1 0 0 0 0 0 0 0 0 0 1 2 3 3 2 2 1 1 1 2 3 3 3 4 5 5
4 5 7 6 5 5 5 4 4 5 4 3 3 2 2 1 2 1 1 1 1 0 0 0 0 0 0 0 1 1 2 2 1 1 0 0 1 1 1 1 2 2 2
5 6 7 7 6 6 6 6 5 6 6 6 5 4 3 2 2 2 2 2 3 2 1 0 0 0 1 0 0 1 2 2 2 1 0 0 0 0 0 0 1 1 1
10 9 9 9 10 10 9 9 9 7 6 7 6 4 3 3 2 2 2 4 5 5 3 1 0 0 0 0 1 1 1 1 1 1 0 0 0 0 0 0 0 0 0
14 14 13 13 13 13 12 12 10 8 7 8 7 6 5 4 4 4 4 5 6 6 4 1 0 0 0 1 2 2 1 0 0 0 0 0 0 0 0 0 0 0 0
16 17 17 17 16 14 14 13 11 11 10 10 10 8 7 7 6 5 6 6 5 5 3 1 0 0 0 1 2 2 1 0 0 0 0 0 0 0 0 0 0 0 0
18 19 20 19 16 14 14 14 13 12 11 11 10 10 10 9 8 7 6 5 5 5 3 1 0 0 0 0 1 1 1 0 0 0 0 0 0 0 0 0 0 0 0
20 20 19 18 14 12 12 13 12 11 11 11 10 10 12 11 9 6 5 5 6 6 5 2 1 1 0 0 0 0 0 0 0 0 1 1 0 0 0 0 0 0 0
21 20 19 17 14 11 10 9 9 9 11 13 12 12 12 11 8 6 5 5 6 6 6 5 3 2 1 0 0 0 0 0 0 0 1 2 1 0 0 0 0 0 0
19 19 19 17 15 13 11 9 9 10 12 13 13 12 11 9 8 7 5 4 5 6 6 5 3 2 1 0 0 0 0 1 1 1 1 2 2 1 1 0 0 0 0
17 17 17 16 15 13 12 10 10 11 12 12 12 10 9 8 7 7 6 4 3 3 3 3 1 1 0 0 0 0 0 1 1 2 2 2 3 3 2 1 0 0 0
16 15 14 14 14 12 10 9 9 11 12 11 9 8 7 7 6 5 5 3 1 1 1 1 0 0 0 0 0 0 0 1 2 3 2 2 2 3 2 1 0 0 0
16 15 13 13 13 11 9 6 6 10 11 10 8 7 7 7 5 4 3 2 0 0 0 0 0 0 0 0 0 0 0 1 3 3 2 2 2 2 1 0 0 0 0
Wind_Speed
3 3 3 2 2 2 3 2 2 2 2 2 2 3 3 3 3 3 3 10 11 12 12 12 12 11 11 11 10 10 10 10 10 10 10 10 10 10 10 10 10 9 9
3 3 3 2 2 2 2 2 3 2 2 2 2 2 3 3 4 3 3 6 11 11 11 12 12 11 11 11 11 11 10 10 10 10 10 10 10 10 10 10 9 9 9
4 4 3 2 2 2 2 2 2 1 1 1 2 2 2 2 2 3 3 3 5 9 11 11 11 11 11 11 11 10 10 10 9 10 10 10 9 9 9 9 9 9 9
4 4 3 2 2 2 2 2 1 1 1 1 1 2 2 1 2 2 3 3 3 4 7 11 11 11 11 11 11 11 10 9 9 9 9 9 9 10 10 10 10 9 9
4 4 3 3 2 2 2 2 2 2 1 1 2 2 2 2 2 3 3 3 4 4 4 7 11 12 12 12 12 11 10 10 9 9 10 10 10 9 9 10 10 10 10
4 4 3 3 3 2 2 2 2 2 2 2 2 2 2 2 2 3 4 3 3 5 5 5 5 7 12 12 11 11 11 11 10 10 10 10 10 10 10 10 10 10 10
4 4 3 3 3 3 4 3 2 2 1 1 0 1 2 2 3 3 3 3 4 4 4 5 4 4 4 10 10 11 11 12 11 11 11 11 11 10 10 10 10 10 10
5 4 4 4 3 3 3 3 2 2 2 1 2 0 2 3 3 3 2 3 4 4 4 6 5 5 5 3 6 11 12 12 12 11 11 11 11 10 10 11 10 10 10
5 4 5 4 4 4 3 4 4 4 3 2 2 3 2 2 2 3 3 3 3 3 4 4 5 5 6 5 5 9 12 12 12 12 11 11 10 10 10 10 11 10 10
4 5 5 4 4 3 4 4 4 3 3 2 2 2 3 3 2 2 3 3 3 3 4 4 4 5 6 5 6 9 12 12 13 13 12 11 11 11 11 11 11 11 11
3 4 4 4 4 3 4 4 3 3 3 3 3 2 2 2 2 2 3 3 2 3 4 4 4 4 5 5 5 8 11 11 11 12 11 11 11 11 11 11 11 11 10
2 2 3 3 4 4 4 4 4 4 4 4 3 3 3 3 3 3 3 3 3 3 3 3 4 4 4 4 7 9 10 10 10 10 10 10 10 10 10 10 10 10 11
1 2 2 2 3 3 4 4 4 4 4 4 4 3 3 4 3 3 3 2 3 3 2 3 3 3 4 3 4 7 8 9 9 10 10 10 10 10 10 10 10 10 10
2 2 2 2 2 3 3 3 3 4 3 4 5 4 3 3 3 3 3 3 2 2 2 3 2 3 3 3 4 6 4 6 7 9 10 10 10 10 10 9 9 9 9
2 2 2 2 2 2 2 3 2 3 3 3 4 3 3 2 2 3 3 3 3 3 4 3 2 3 2 3 4 3 3 6 8 8 9 10 10 10 10 9 9 8 8
2 2 2 2 2 2 2 2 2 2 2 3 2 2 2 2 2 2 2 2 3 4 4 3 3 3 3 3 4 3 4 7 7 8 8 8 9 9 9 9 8 8 8
2 3 3 3 2 3 3 2 3 2 2 3 2 2 3 3 2 2 2 2 3 3 4 4 2 2 2 3 2 2 3 4 4 7 7 8 8 9 9 8 8 8 8
3 3 3 2 3 3 3 3 3 3 3 3 3 3 3 2 3 3 2 2 2 3 3 4 3 2 3 3 3 3 3 4 3 6 7 7 7 7 7 8 7 7 7
2 2 2 3 3 3 3 3 4 3 4 4 4 4 4 3 4 3 3 3 2 2 2 3 3 2 2 2 1 2 3 3 4 4 5 6 6 6 6 6 6 7 7
2 3 3 3 3 3 3 3 3 3 3 4 4 4 4 4 5 4 3 3 2 2 1 2 2 2 2 1 0 1 2 2 3 3 3 3 4 5 6 6 6 7 7
3 3 2 3 3 3 4 3 3 3 3 4 4 4 4 5 6 5 3 3 3 2 2 2 2 2 2 1 2 2 3 3 3 2 1 2 2 2 4 6 7 7 7
3 2 3 3 3 4 4 4 3 3 4 4 4 4 4 5 5 5 5 5 5 4 4 3 2 3 3 3 2 2 2 2 3 2 2 3 2 3 3 3 6 7 7
2 2 3 3 4 4 4 4 4 3 4 4 4 3 3 3 3 3 4 5 5 6 7 5 4 5 4 4 3 3 3 3 4 3 1 3 2 3 3 4 6 7 7
2 2 2 3 3 3 3 3 4 3 3 3 4 4 4 3 3 3 3 3 4 4 5 4 5 5 5 4 5 4 4 3 3 2 2 3 2 3 3 3 5 6 6
2 2 2 2 2 3 3 3 3 2 2 3 3 3 3 4 5 4 2 3 3 4 4 4 5 5 5 5 3 1 1 1 2 3 1 2 2 2 2 2 3 5 6
2 2 2 2 2 2 3 3 2 1 2 2 3 3 4 4 4 4 3 3 3 4 2 2 2 3 3 3 3 3 3 2 2 2 2 2 1 0 2 2 2 2 2
Wind_Direction
175 177 184 183 187 194 194 193 193 196 205 218 220 209 207 196 199 192 193 194 194 196 196 195 198 200 202 203 204 207 210 211 209 211 217 221 223 225 224 222 220 219 221
174 173 176 180 187 194 189 187 191 189 202 212 221 220 217 201 197 194 192 198 197 198 200 199 202 203 204 206 209 212 214 216 215 216 220 222 222 224 224 222 222 222 222
170 167 172 183 192 188 183 174 187 171 195 210 211 232 231 209 197 198 194 196 197 201 201 202 205 209 209 211 214 215 216 217 217 218 219 221 221 223 223 223 225 224 224
174 166 169 186 192 179 172 174 181 165 209 216 221 239 237 211 210 215 203 203 197 200 204 206 208 211 212 214 216 216 215 214 215 218 219 220 222 222 225 226 228 226 226
181 176 181 189 187 181 185 192 173 174 192 222 238 238 240 220 218 232 221 209 203 202 204 209 213 215 216 218 219 219 216 214 215 220 222 224 226 226 227 229 227 225 227
183 178 184 193 184 179 193 193 181 182 193 207 243 268 258 246 228 228 231 219 207 211 211 213 215 221 221 222 223 223 222 221 221 224 225 227 227 228 230 230 228 228 229
188 183 189 193 190 188 197 192 181 189 212 180 91 314 298 267 250 241 234 222 222 222 215 214 211 215 225 225 224 226 230 231 228 228 229 229 228 229 231 230 229 228 230
190 192 190 193 190 188 197 197 182 191 228 191 158 124 326 322 298 263 244 227 227 222 222 221 212 213 218 214 218 223 228 231 232 231 232 229 229 232 232 231 230 231 232
196 197 194 190 192 190 196 203 195 193 214 234 191 173 181 238 287 286 255 241 230 222 227 224 218 218 221 218 220 227 230 231 232 234 234 229 228 229 232 235 233 235 237
202 203 197 192 193 188 189 202 198 191 188 226 241 219 202 187 193 275 291 263 245 233 231 235 229 224 226 221 217 221 227 228 229 233 234 231 229 231 235 237 238 239 239
213 207 193 189 192 193 194 199 196 192 190 203 218 225 231 226 200 201 264 285 281 250 232 227 226 226 225 222 223 225 225 226 227 230 233 233 234 236 237 239 241 240 240
224 211 196 195 199 199 198 199 200 203 209 213 219 213 205 209 211 201 229 258 269 270 249 232 227 231 232 223 230 229 225 222 225 228 230 232 235 237 240 240 240 240 240
214 230 215 200 201 204 200 197 203 211 215 218 221 228 226 223 203 194 206 241 257 268 259 245 236 227 232 222 234 235 230 225 227 230 232 231 233 235 237 239 242 243 242
218 223 213 211 213 206 202 200 210 225 222 225 236 236 240 242 214 201 197 200 255 277 268 255 258 232 232 226 231 228 233 225 231 236 236 233 233 235 235 237 241 243 243
226 226 218 222 224 216 208 198 213 231 228 228 236 239 240 252 235 214 206 194 193 245 267 254 249 243 231 226 229 229 231 231 232 233 234 234 235 237 238 238 239 238 239
246 250 241 225 222 217 214 200 219 232 224 238 234 237 247 251 255 244 226 214 201 209 247 251 238 244 235 244 239 238 244 245 242 238 235 237 240 239 238 239 240 236 236
233 239 239 227 224 226 220 214 225 225 228 246 248 236 248 251 251 250 239 225 221 207 239 269 257 245 229 240 253 252 256 251 250 240 234 237 242 244 241 237 236 236 237
229 230 234 231 235 236 227 216 227 231 227 239 245 241 249 254 259 253 244 243 238 219 217 259 277 264 247 237 233 244 260 260 251 249 241 237 236 239 238 232 234 234 236
236 235 226 227 236 239 230 224 222 228 232 235 236 237 246 238 249 254 244 248 249 244 217 231 262 261 260 247 254 269 269 273 260 257 237 235 233 234 232 232 228 228 233
231 237 230 228 233 244 238 227 221 227 240 246 243 238 238 231 238 243 244 240 240 243 232 235 256 263 266 265 221 268 288 280 274 270 257 234 234 233 238 238 235 233 231
234 238 244 251 245 244 239 225 220 227 235 252 256 250 246 246 246 242 243 231 225 228 225 228 247 270 274 275 254 250 265 284 279 254 253 258 248 248 241 243 238 239 237
228 227 235 243 255 263 265 247 231 230 230 236 250 262 261 255 254 251 249 239 218 215 216 215 236 237 247 249 254 252 252 273 277 260 214 261 229 246 244 236 242 241 239
227 234 239 242 251 260 265 259 252 242 240 236 234 246 267 269 265 245 251 256 247 238 225 213 217 232 232 224 229 247 240 234 243 252 199 261 254 249 249 250 243 237 237
220 236 247 251 254 261 258 264 269 257 252 246 237 231 236 251 251 238 227 237 248 253 241 227 220 231 232 221 214 223 232 245 263 265 183 231 251 250 259 252 247 236 240
229 238 251 242 245 270 264 268 280 258 255 262 259 251 239 236 250 230 210 225 255 274 267 246 241 246 243 230 207 188 234 234 273 274 223 208 247 261 269 266 270 253 249
228 243 264 256 243 267 274 268 268 222 246 272 281 270 257 245 241 213 206 210 235 256 267 291 286 285 265 248 227 203 204 209 229 260 241 195 231 216 304 289 283 290 266